Reflectivity
-20 -20 -20 -20 -20 -20 -20 -20 -20 -20 8 11 10 -12 -19 4 -5 -3 5 7 7 12 29 32 28 11 21
-20 -19 -20 -20 -20 -20 -20 -20 -20 -20 -20 -20 -20 -17 -19 -20 -20 -20 -8 -17 16 8 6 10 9 19 -16
-20 -20 -20 -20 -20 -20 -20 -20 -20 -20 -20 -20 -20 -20 -20 -20 -20 -20 -20 -20 -20 7 2 14 14 20 12
-20 -20 -20 -20 -20 -20 -20 -20 -20 -20 -20 -20 -20 -20 -20 -20 -20 -20 -20 -20 -20 -20 -20 -7 2 7 9
-20 -20 -20 -20 -20 -20 -20 -20 -20 -20 -20 -20 -20 -20 -20 -20 -20 -20 -20 -20 -20 -20 -20 -18 -16 -8 1
-20 -20 -20 -20 -20 -20 -20 -20 -20 -20 -20 -20 -20 -20 -20 -20 -20 -20 -20 -20 -20 -20 -20 -20 -20 -20 -20
-20 -20 -20 -20 -20 -20 -20 -20 -20 -20 -20 -20 -20 -20 -20 -20 -20 -20 -20 -20 -20 -20 -20 -20 -20 -20 -20
-20 -20 -20 -20 -20 -20 -20 -20 -20 -20 -20 -20 -20 -20 -20 -20 -20 -20 -20 -20 -20 -20 -20 -20 -20 -20 -20
-20 -20 -20 -20 -20 -20 -20 -20 -20 -20 -20 -20 -20 -20 -20 -20 -20 -20 -20 -20 -20 -20 -20 -20 -20 -20 -20
-20 -20 -20 -20 -20 -20 -20 -20 -20 -20 -20 -20 -20 -20 -20 -20 -20 -20 -20 -20 -20 -20 -20 -20 -20 -20 -20
-20 -20 -20 -20 -20 -20 -20 -20 -20 -20 -20 -20 -20 -20 -20 -20 -20 -20 -20 -20 -20 -20 -20 -20 -20 -20 -20
-20 -20 -20 -20 -20 -20 -20 -20 -20 -20 -20 -20 -20 -20 -20 -20 -20 -20 -20 -20 -20 -20 -20 -20 -20 -20 -20
-20 -20 -20 -20 -20 -20 -20 -20 -20 -20 -20 -20 -20 -20 -20 -20 -20 -20 -20 -20 -20 -20 -20 -20 -20 -20 -20
-20 -11 -12 -20 -20 -20 -20 -20 -20 -20 -20 -20 -20 -20 -20 -20 -20 -20 -20 -20 -20 -20 -20 -20 -20 -20 -20
-20 -18 -16 -20 -20 -20 -20 -20 -20 -20 -20 -20 -20 -20 -20 -20 -20 -20 -20 -20 -20 -20 -20 -20 -20 -20 -20
3 -14 -20 -20 -20 -20 -20 -20 -20 -20 -20 -20 -20 -20 -20 -20 -20 -20 -20 -20 -20 -20 -20 -20 -20 -20 -20
-20 -20 -20 -20 -20 -20 -20 -20 -20 -20 -20 -20 -20 -20 -20 -20 -20 -20 -20 -20 -20 -20 -20 -20 -20 -20 -20
Wind_Speed
2 1 3 3 3 3 2 3 3 7 9 8 10 11 12 13 15 17 18 21 19 20 17 16 18 15 11
2 1 2 1 1 1 2 3 2 5 7 8 9 11 13 14 13 15 15 16 15 16 16 14 10 6 4
2 1 1 2 2 3 3 3 2 7 6 8 9 9 10 11 12 14 15 14 10 10 9 8 8 7 6
3 2 2 2 3 2 3 4 3 4 6 7 8 9 9 10 11 12 12 11 11 10 8 7 6 5 4
2 2 2 3 2 2 2 1 2 4 3 3 3 4 4 6 6 8 8 7 7 6 5 4 2 2 2
2 2 2 2 1 1 1 2 1 2 4 3 3 3 3 3 6 9 7 5 4 4 4 4 4 4 5
4 2 2 2 2 2 1 1 1 3 2 2 3 2 3 4 5 8 6 6 6 4 4 3 4 5 6
5 4 4 4 3 3 3 1 1 1 2 1 3 2 3 3 5 7 7 7 8 6 4 4 4 4 5
6 4 4 3 4 3 1 3 1 1 3 1 3 2 3 3 4 10 8 7 5 5 5 5 7 5 6
2 1 3 3 6 2 3 3 2 2 2 2 3 2 4 2 2 3 4 9 9 8 8 8 6 1 2
1 1 2 3 3 3 3 4 3 1 0 3 1 3 1 3 3 2 2 3 3 5 8 8 8 6 2
1 1 2 2 2 3 3 2 2 4 2 2 1 2 1 2 3 3 3 3 1 2 2 7 9 9 10
2 1 2 3 3 1 1 2 2 3 3 3 3 2 2 3 4 4 5 4 5 1 2 2 2 2 3
2 1 2 2 1 2 1 0 2 3 4 3 5 4 3 4 5 7 3 5 2 2 5 3 3 4 5
2 2 2 2 2 2 2 1 2 2 3 3 3 5 5 5 3 6 6 4 4 5 2 5 4 5 5
3 3 3 3 2 1 1 3 3 2 2 2 2 2 3 5 16 7 4 4 3 4 3 5 7 4 5
4 4 3 3 4 2 2 2 2 2 3 2 2 3 3 7 3 11 5 3 2 2 3 4 8 8 7
Wind_Direction
97 41 56 44 28 32 72 83 40 17 15 18 26 32 38 27 24 26 28 37 45 55 80 110 115 118 118
139 140 102 9 330 101 14 74 61 30 34 21 25 38 44 42 29 26 30 36 44 49 56 64 73 88 127
129 111 117 83 14 6 52 29 11 29 30 26 34 39 40 45 41 33 31 29 37 50 58 65 64 55 44
101 144 93 38 75 49 21 29 358 1 9 25 30 25 34 55 48 32 26 25 32 44 52 46 44 50 42
90 80 89 46 63 359 52 344 350 12 335 348 2 15 28 34 35 20 14 10 13 17 26 33 46 31 1
131 117 103 109 35 48 56 30 336 357 3 346 24 25 5 345 23 10 3 11 4 354 347 335 323 303 293
112 126 129 135 133 84 66 115 247 299 19 316 5 2 343 345 16 11 17 10 9 2 344 322 293 280 277
106 132 133 135 132 162 181 241 344 338 9 357 352 317 327 326 14 35 29 25 20 18 348 329 305 278 270
130 123 115 109 132 98 49 73 339 331 359 47 345 313 326 332 359 23 6 4 19 11 356 346 345 341 344
48 41 72 74 88 106 146 132 170 12 298 74 346 31 342 307 323 11 351 13 6 5 353 357 327 341 332
128 126 96 109 112 97 94 131 139 211 105 94 9 349 72 303 311 337 26 342 336 328 335 330 312 306 261
150 154 150 152 168 153 140 137 137 170 282 117 232 138 341 298 267 327 323 301 144 288 294 306 305 305 296
199 207 186 174 140 88 357 260 241 229 223 231 197 227 202 253 283 301 319 313 303 286 310 303 272 267 291
212 197 128 136 186 156 161 224 97 293 285 238 222 180 226 240 253 271 233 286 283 311 292 279 264 249 249
190 200 198 172 223 166 184 122 170 227 287 301 289 206 206 187 255 246 257 246 251 275 299 291 253 241 255
200 201 198 189 211 258 131 175 203 235 246 267 329 1 329 265 226 254 239 242 240 245 240 270 281 262 261
193 201 192 194 243 194 216 200 244 227 243 214 159 140 254 273 273 224 226 223 244 251 221 238 274 280 279